Spokane Felts, WA
on Thursday, December 27, 2012

Thursday
Previous Day Next Day
Daily Summary
 ActualAverageRecord
Temperature
Mean Temperature °F 29°F  
Max Temperature 34°F 35°F 55°F (2008)
Min Temperature 31°F 23°F 14°F (2001)
Degree Days
Heating Degree Days 32 36  
Month to date heating degree days 744 951  
Since 1 July heating degree days 2017 2525  
Cooling Degree Days 0 0  
Month to date cooling degree days 0 0  
Year to date cooling degree days 509 406  
Moisture
Dew Point 27°F   
Average Humidity 84    
Maximum Humidity 92    
Minimum Humidity 75    
Precipitation
Precipitation 0.01 in 0.08 in 0.46 in (2002)
Month to date precipitation 1.75 2.27  
Year to date precipitation 20.51 17.49  
Wind
Wind Speed 1 mph   
Max Wind Speed 8 mph   
Max Gust Speed 9 mph   
Visibility 6 miles   
Events Snow   

Key: T is trace of precipitation, MM is missing value
Source: NWS Daily Summary
Time(PST)TemperatureDew PointHumidity Pressure Visibility Wind DirectionWind SpeedGust SpeedPrecipitationEvents Conditions
12:00 AM 30.2°F 26.6°F 86% 29.92 in 2.0 miles Calm Calm - 0.00 in Snow Light Snow
12:09 AM 30.2°F 26.6°F 86% 29.92 in 1.5 miles Calm Calm - 0.00 in Snow Light Snow
12:21 AM 30.2°F 26.6°F 86% 29.92 in 2.5 miles Calm Calm - 0.00 in Snow Light Snow
12:35 AM 30.2°F 26.6°F 86% 29.93 in 3.0 miles Calm Calm - 0.00 in Snow Light Snow
12:43 AM 30.2°F 26.6°F 86% 29.93 in 1.8 miles Calm Calm - 0.00 in Snow Light Snow
12:53 AM 30.9°F 28.0°F 89% 29.98 in 1.2 miles Calm Calm - 0.01 in Snow Light Snow
1:26 AM 30.2°F 28.4°F 93% 29.94 in 2.5 miles Calm Calm - 0.00 in Snow Light Snow
1:38 AM 30.2°F 28.4°F 93% 29.94 in 3.0 miles Calm Calm - 0.00 in Snow Light Snow
1:53 AM 30.9°F 28.0°F 89% 29.99 in 2.5 miles Calm Calm - 0.00 in Snow Light Snow
2:03 AM 30.2°F 28.4°F 93% 29.95 in 3.0 miles Calm Calm - 0.00 in   Overcast
2:32 AM 30.2°F 28.4°F 93% 29.95 in 6.0 miles Calm Calm - 0.00 in   Overcast
2:53 AM 30.9°F 28.0°F 89% 30.00 in 7.0 miles Calm Calm - 0.00 in   Overcast
3:53 AM 30.9°F 28.0°F 89% 30.01 in 6.0 miles Calm Calm - N/A   Overcast
4:53 AM 30.9°F 28.0°F 89% 30.01 in 6.0 miles Calm Calm - 0.00 in   Overcast
5:53 AM 32.0°F 28.0°F 85% 30.03 in 5.0 miles Calm Calm - N/A   Overcast
6:53 AM 32.0°F 27.0°F 82% 30.04 in 10.0 miles SSW 5.8 mph - N/A   Overcast
7:53 AM 30.9°F 27.0°F 85% 30.06 in 2.0 miles SW 4.6 mph - 0.00 in Snow Light Snow
8:00 AM 30.2°F 26.6°F 86% 30.01 in 2.0 miles WSW 4.6 mph - 0.00 in Snow Light Snow
8:53 AM 32.0°F 27.0°F 82% 30.08 in 2.0 miles Calm Calm - 0.00 in   Haze
9:00 AM 32.0°F 28.4°F 87% 30.03 in 3.0 miles WSW 3.5 mph - N/A   Overcast
9:53 AM 32.0°F 28.0°F 85% 30.09 in 3.0 miles Calm Calm - 0.00 in   Overcast
9:56 AM 32.0°F 28.4°F 87% 30.03 in 2.0 miles Calm Calm - 0.00 in Snow Light Snow
10:53 AM 32.0°F 28.0°F 85% 30.09 in 5.0 miles Calm Calm - 0.00 in   Overcast
11:53 AM 33.1°F 28.0°F 82% 30.09 in 7.0 miles Calm Calm - N/A   Overcast
12:53 PM 33.1°F 27.0°F 78% 30.09 in 10.0 miles WNW 5.8 mph - N/A   Overcast
1:34 PM 33.8°F 26.6°F 75% 30.04 in 10.0 miles WNW 3.5 mph - N/A   Overcast
1:41 PM 33.8°F 26.6°F 75% 30.04 in 10.0 miles Calm Calm - N/A   Overcast
1:53 PM 34.0°F 27.0°F 75% 30.09 in 10.0 miles WNW 3.5 mph - N/A   Overcast
2:53 PM 34.0°F 27.0°F 75% 30.10 in 10.0 miles Calm Calm - N/A   Mostly Cloudy
3:53 PM 33.8°F 26.6°F 75% 30.06 in 10.0 miles Calm Calm - N/A   Mostly Cloudy
4:53 PM 33.1°F 26.1°F 75% 30.13 in 10.0 miles Calm Calm - N/A   Overcast
5:53 PM 32.0°F 26.1°F 79% 30.14 in 10.0 miles WSW 3.5 mph - N/A   Overcast
6:53 PM 32.0°F 27.0°F 82% 30.14 in 10.0 miles West 3.5 mph - N/A   Overcast
7:53 PM 32.0°F 26.1°F 79% 30.15 in 10.0 miles Calm Calm - N/A   Overcast
8:53 PM 32.0°F 26.1°F 79% 30.15 in 9.0 miles Calm Calm - N/A   Overcast
9:53 PM 30.9°F 26.1°F 82% 30.17 in 9.0 miles Calm Calm - 0.00 in   Overcast
10:32 PM 30.2°F 26.6°F 86% 30.12 in 10.0 miles SSW 3.5 mph - N/A   Overcast
10:53 PM 30.9°F 26.1°F 82% 30.17 in 10.0 miles SW 3.5 mph - N/A   Overcast
11:53 PM 30.9°F 26.1°F 82% 30.18 in 10.0 miles SW 3.5 mph - 0.00 in   Overcast
Moon Phase
Dec. 27 Dec. 28 Jan. 04 Jan. 11 Jan. 18
Sunrise:07:37 AM (PST) Moon Rise:03:54 PM (PST)12/27
Sunset:04:04 PM (PST) Moon Set:06:49 AM (PST)12/27

Copyright © 2014 The Weather Underground, Inc.